Weather History for Kangerlussuaq, Greenland

Change the Weather History Date:

Thursday, September 26, 2013

  Actual Average Record
Temperature  
Mean Temperature 38 °F -  
Max Temperature 42 °F 31 °F 57 °F (2003)
Min Temperature 35 °F 17 °F 14 °F (2005)
Degree Days  
Heating Degree Days 26    
Moisture  
Dew Point 34 °F    
Average Humidity 84    
Maximum Humidity 100    
Minimum Humidity 56    
Precipitation  
Precipitation 0.00 in 0.02 in - ()
Sea Level Pressure  
Sea Level Pressure 30.11 in    
Wind  
Wind Speed 5 mph ()    
Max Wind Speed 12 mph    
Max Gust Speed -    
Visibility 6.2 miles    
Events Rain    
Averages and records for this station are not official NWS values.
T = Trace of Precipitation, MM = Missing Value Source: Averaged Metar Reports

Daily Weather History Graph

Daily Weather History Graph

Search for Another Location

Airport:

Trip Planner

Search our weather history database for the weather conditions in past years. The results will help you decide how hot, cold, wet, or windy it might be!

Date:

Astronomy

Sep. 26, 2013 Rise Set
Actual Time 7:18 AM WGST 7:07 PM WGST
Civil Twilight 6:25 AM WGST 8:00 PM WGST
Nautical Twilight 5:20 AM WGST 9:05 PM WGST
Astronomical Twilight 4:04 AM WGST 10:19 PM WGST
Moon 9:28 PM WGST (9/26) 4:40 PM WGST (9/26)
Length of Visible Light 13h 35m
Length of Day
11h 49m
Waning Gibbous, 55% of the Moon is Illuminated
Sep 26
Waning Gibbous
Sep 27
Last Quarter
Oct 4
New
Oct 11
First Quarter
Oct 18
Full

Hourly Weather History & Observations

Time (WGST) Temp. Windchill Dew Point Humidity Pressure Visibility Wind Dir Wind Speed Gust Speed Precip Events Conditions
12:20 AM 37.4 °F 32.1 °F 35.6 °F 93% 30.12 in 6.2 mi West 6.9 mph - N/A   Overcast
12:50 AM 37.4 °F 32.1 °F 35.6 °F 93% 30.15 in 6.2 mi West 6.9 mph - N/A Rain Light Rain Showers
1:00 AM 38 °F - 35 °F 85% 30.16 in 31 mi West 6.9 mph - - Rain Drizzle
1:20 AM 37.4 °F 32.1 °F 35.6 °F 93% 30.15 in 6.2 mi West 6.9 mph - N/A   Overcast
1:50 AM 37.4 °F 32.1 °F 35.6 °F 93% 30.15 in 6.2 mi WSW 6.9 mph - N/A   Overcast
2:20 AM 37.4 °F 32.8 °F 35.6 °F 93% 30.15 in 6.2 mi West 5.8 mph - N/A   Overcast
2:50 AM 37.4 °F 32.1 °F 35.6 °F 93% 30.15 in 6.2 mi West 6.9 mph - N/A   Overcast
3:20 AM 37.4 °F 33.8 °F 35.6 °F 93% 30.15 in 6.2 mi West 4.6 mph - N/A   Overcast
3:50 AM 37.4 °F 34.9 °F 35.6 °F 93% 30.15 in 6.2 mi West 3.5 mph - N/A   Overcast
4:00 AM 37 °F - 35 °F 89% 30.17 in 31 mi WSW 2.3 mph - -   Overcast
4:20 AM 37.4 °F - 35.6 °F 93% 30.15 in 6.2 mi NE 2.3 mph - N/A   Overcast
4:50 AM 37.4 °F 34.9 °F 35.6 °F 93% 30.15 in 6.2 mi ENE 3.5 mph - N/A   Overcast
5:20 AM 35.6 °F 32.8 °F 35.6 °F 100% 30.15 in 6.2 mi NE 3.5 mph - N/A   Overcast
5:50 AM 35.6 °F - 35.6 °F 100% 30.15 in 6.2 mi NE 2.3 mph - N/A   Overcast
6:20 AM 35.6 °F 32.8 °F 35.6 °F 100% 30.15 in 6.2 mi ENE 3.5 mph - N/A   Overcast
6:50 AM 35.6 °F 31.7 °F 35.6 °F 100% 30.15 in 6.2 mi ENE 4.6 mph - N/A   Overcast
7:00 AM 36 °F - 35 °F 94% 30.17 in 28 mi ENE 3.5 mph - -   Overcast
7:50 AM 35.6 °F 31.7 °F 33.8 °F 93% 30.15 in 6.2 mi NE 4.6 mph - N/A   Overcast
8:50 AM 35.6 °F 30.7 °F 35.6 °F 100% 30.15 in 6.2 mi NE 5.8 mph - N/A   Overcast
9:20 AM 37.4 °F 32.8 °F 35.6 °F 93% 30.15 in 6.2 mi NE 5.8 mph - N/A   Overcast
9:50 AM 37.4 °F 33.8 °F 35.6 °F 93% 30.15 in 6.2 mi NE 4.6 mph - N/A   Overcast
10:00 AM 37 °F - 35 °F 92% 30.16 in 31 mi ENE 6.9 mph - -   Overcast
10:20 AM 37.4 °F 31.4 °F 35.6 °F 93% 30.12 in 6.2 mi East 8.1 mph - N/A   Overcast
10:50 AM 37.4 °F 31.4 °F 35.6 °F 93% 30.12 in 6.2 mi East 8.1 mph - N/A   Mostly Cloudy
11:20 AM 37.4 °F 31.4 °F 35.6 °F 93% 30.12 in 6.2 mi ENE 8.1 mph - N/A   Overcast
11:50 AM 39.2 °F 34.2 °F 35.6 °F 87% 30.12 in 6.2 mi ENE 6.9 mph - N/A   Mostly Cloudy
12:20 PM 39.2 °F 35.0 °F 35.6 °F 87% 30.12 in 6.2 mi East 5.8 mph - N/A   Overcast
12:50 PM 39.2 °F 35.0 °F 35.6 °F 87% 30.12 in 6.2 mi East 5.8 mph - N/A   Mostly Cloudy
1:00 PM 40 °F - 36 °F 78% 30.13 in 31 mi East 5.8 mph - -   Overcast
1:20 PM 39.2 °F 35.9 °F 35.6 °F 87% 30.09 in 6.2 mi East 4.6 mph - N/A   Overcast
1:50 PM 41.0 °F 39.0 °F 35.6 °F 81% 30.09 in 6.2 mi ENE 3.5 mph - N/A   Mostly Cloudy
2:50 PM 41.0 °F 39.0 °F 35.6 °F 81% 30.09 in 6.2 mi ENE 3.5 mph - N/A   Mostly Cloudy
3:20 PM 41.0 °F 39.0 °F 35.6 °F 81% 30.09 in 6.2 mi ENE 3.5 mph - N/A   Overcast
3:50 PM 41.0 °F 39.0 °F 35.6 °F 81% 30.06 in 6.2 mi ENE 3.5 mph - N/A   Mostly Cloudy
4:00 PM 42 °F - 34 °F 65% 30.10 in 31 mi NE 3.5 mph - -   Overcast
4:20 PM 42.8 °F 41.1 °F 35.6 °F 76% 30.06 in 6.2 mi ENE 3.5 mph - N/A   Overcast
4:50 PM 42.8 °F 40.1 °F 35.6 °F 76% 30.06 in 6.2 mi ENE 4.6 mph - N/A   Mostly Cloudy
5:20 PM 42.8 °F 40.1 °F 35.6 °F 76% 30.06 in 6.2 mi East 4.6 mph - N/A   Overcast
5:50 PM 42.8 °F 40.1 °F 35.6 °F 76% 30.06 in 6.2 mi East 4.6 mph - N/A   Mostly Cloudy
6:20 PM 41.0 °F 38.0 °F 35.6 °F 81% 30.06 in 6.2 mi East 4.6 mph - N/A   Overcast
6:50 PM 41.0 °F 37.1 °F 33.8 °F 76% 30.06 in 6.2 mi NE 5.8 mph - N/A   Mostly Cloudy
7:00 PM 40 °F - 32 °F 64% 30.09 in 31 mi ENE 5.8 mph - -   Overcast
7:20 PM 41.0 °F 37.1 °F 32.0 °F 70% 30.06 in 6.2 mi ENE 5.8 mph - N/A   Overcast
7:50 PM 39.2 °F 33.6 °F 33.8 °F 81% 30.06 in 6.2 mi ENE 8.1 mph - N/A   Mostly Cloudy
8:20 PM 39.2 °F 32.5 °F 32.0 °F 75% 30.06 in 6.2 mi ENE 10.4 mph - N/A   Overcast
8:50 PM 37.4 °F 30.8 °F 30.2 °F 75% 30.06 in 6.2 mi ENE 9.2 mph - N/A   Mostly Cloudy
9:20 PM 37.4 °F 30.3 °F 28.4 °F 70% 30.06 in 6.2 mi ENE 10.4 mph - N/A   Overcast
9:50 PM 35.6 °F 28.6 °F 26.6 °F 70% 30.06 in 6.2 mi ENE 9.2 mph - N/A   Mostly Cloudy
10:00 PM 36 °F - 26 °F 56% 30.09 in 31 mi ENE 10.4 mph - -   Mostly Cloudy
10:20 PM 35.6 °F 28.0 °F 26.6 °F 70% 30.06 in 6.2 mi ENE 10.4 mph - N/A   Overcast
10:50 PM 35.6 °F 28.0 °F 26.6 °F 70% 30.06 in 6.2 mi ENE 10.4 mph - N/A   Mostly Cloudy
11:20 PM 35.6 °F 28.6 °F 26.6 °F 70% 30.06 in 6.2 mi NE 9.2 mph - N/A   Overcast
11:50 PM 35.6 °F 27.5 °F 24.8 °F 65% 30.06 in 6.2 mi ENE 11.5 mph - N/A   Mostly Cloudy